Weather History for Coeur d'Alene, ID

Change the Weather History Date:

Thursday, June 27, 2013

  Actual Average Record
Temperature  
Mean Temperature 66 °F -  
Max Temperature 78 °F 73 °F 93 °F (2006)
Min Temperature 53 °F 48 °F 37 °F (1997)
Growing Degree Days 16 (Base 50)    
Moisture  
Dew Point 55 °F    
Average Humidity 69    
Maximum Humidity 94    
Minimum Humidity 47    
Precipitation  
Precipitation 0.06 in - - ()
Sea Level Pressure  
Sea Level Pressure 30.19 in    
Wind  
Wind Speed 6 mph (NE)    
Max Wind Speed 14 mph    
Max Gust Speed -    
Visibility 10 miles    
Events      
Averages and records for this station are not official NWS values.
T = Trace of Precipitation, MM = Missing Value Source: NWS Daily Summary

Daily Weather History Graph

Daily Weather History Graph

Search for Another Location

Airport:

Trip Planner

Search our weather history database for the weather conditions in past years. The results will help you decide how hot, cold, wet, or windy it might be!

Date:

Astronomy

Jun. 27, 2013 Rise Set
Actual Time 4:50 AM PDT 8:49 PM PDT
Civil Twilight 4:10 AM PDT 9:30 PM PDT
Nautical Twilight 3:13 AM PDT 10:27 PM PDT
Astronomical Twilight 1:41 AM PDT 11:58 PM PDT
Moon 11:22 PM PDT (6/27) 10:20 AM PDT (6/27)
Length of Visible Light 17h 20m
Length of Day
15h 58m
Waning Gibbous, 75% of the Moon is Illuminated
Jun 27
Waning Gibbous
Jun 29
Last Quarter
Jul 8
New
Jul 15
First Quarter
Jul 22
Full

Hourly Weather History & Observations

Time (PDT) Temp. Dew Point Humidity Pressure Visibility Wind Dir Wind Speed Gust Speed Precip Events Conditions
12:15 AM 57.2 °F 53.6 °F 88% 30.14 in 10.0 mi South 3.5 mph - N/A   Clear
12:35 AM 57.2 °F 53.6 °F 88% 30.14 in 10.0 mi South 3.5 mph - N/A   Clear
12:55 AM 57.2 °F 53.6 °F 88% 30.15 in 10.0 mi South 3.5 mph - N/A   Clear
1:15 AM 57.2 °F 53.6 °F 88% 30.15 in 10.0 mi SSE 4.6 mph - N/A   Clear
1:35 AM 59.0 °F 55.4 °F 88% 30.15 in 10.0 mi SSE 4.6 mph - N/A   Mostly Cloudy
1:55 AM 59.0 °F 55.4 °F 88% 30.15 in 10.0 mi SSE 3.5 mph - N/A   Overcast
2:15 AM 57.2 °F 53.6 °F 88% 30.15 in 10.0 mi Calm Calm - N/A   Mostly Cloudy
2:35 AM 57.2 °F 53.6 °F 88% 30.16 in 10.0 mi ESE 3.5 mph - N/A   Clear
2:55 AM 57.2 °F 53.6 °F 88% 30.16 in 10.0 mi Calm Calm - N/A   Partly Cloudy
3:15 AM 57.2 °F 53.6 °F 88% 30.16 in 10.0 mi SSE 4.6 mph - N/A   Partly Cloudy
3:35 AM 57.2 °F 53.6 °F 88% 30.16 in 10.0 mi SSE 4.6 mph - N/A   Mostly Cloudy
3:55 AM 57.2 °F 53.6 °F 88% 30.16 in 10.0 mi East 3.5 mph - N/A   Overcast
4:15 AM 55.4 °F 53.6 °F 94% 30.16 in 10.0 mi Calm Calm - N/A   Mostly Cloudy
4:35 AM 55.4 °F 53.6 °F 94% 30.16 in 10.0 mi ENE 3.5 mph - N/A   Overcast
4:55 AM 55.4 °F 51.8 °F 88% 30.16 in 10.0 mi ENE 4.6 mph - N/A   Mostly Cloudy
5:15 AM 53.6 °F 50.0 °F 88% 30.16 in 10.0 mi ENE 3.5 mph - N/A   Clear
5:35 AM 55.4 °F 51.8 °F 88% 30.16 in 10.0 mi ENE 3.5 mph - N/A   Clear
5:55 AM 55.4 °F 51.8 °F 88% 30.17 in 10.0 mi ENE 4.6 mph - N/A   Clear
6:15 AM 55.4 °F 51.8 °F 88% 30.18 in 10.0 mi East 3.5 mph - N/A   Clear
6:35 AM 57.2 °F 53.6 °F 88% 30.18 in 10.0 mi East 3.5 mph - N/A   Mostly Cloudy
6:55 AM 60.8 °F 53.6 °F 77% 30.19 in 10.0 mi NE 5.8 mph - N/A   Scattered Clouds
7:15 AM 60.8 °F 53.6 °F 77% 30.20 in 10.0 mi ENE 5.8 mph - N/A   Clear
7:35 AM 60.8 °F 53.6 °F 77% 30.20 in 10.0 mi Calm Calm - N/A   Clear
7:55 AM 62.6 °F 53.6 °F 72% 30.19 in 10.0 mi NNE 3.5 mph - N/A   Clear
8:15 AM 64.4 °F 55.4 °F 73% 30.19 in 10.0 mi NNE 4.6 mph - N/A   Mostly Cloudy
8:35 AM 66.2 °F 55.4 °F 68% 30.19 in 10.0 mi NNE 5.8 mph - N/A   Mostly Cloudy
8:55 AM 66.2 °F 55.4 °F 68% 30.20 in 10.0 mi NE 6.9 mph - N/A   Overcast
9:15 AM 68.0 °F 57.2 °F 68% 30.19 in 10.0 mi NE 5.8 mph - N/A   Overcast
9:35 AM 66.2 °F 55.4 °F 68% 30.20 in 10.0 mi North 3.5 mph - N/A   Overcast
9:55 AM 69.8 °F 55.4 °F 60% 30.19 in 10.0 mi NE 9.2 mph - N/A   Overcast
10:15 AM 68.0 °F 55.4 °F 64% 30.19 in 10.0 mi NNE 8.1 mph - N/A   Mostly Cloudy
10:35 AM 69.8 °F 55.4 °F 60% 30.19 in 10.0 mi NNE 6.9 mph - N/A   Mostly Cloudy
10:55 AM 69.8 °F 57.2 °F 64% 30.19 in 10.0 mi North 9.2 mph - N/A   Overcast
11:15 AM 71.6 °F 57.2 °F 60% 30.19 in 10.0 mi North 11.5 mph - N/A   Mostly Cloudy
11:35 AM 73.4 °F 59.0 °F 61% 30.19 in 8.0 mi NNE 10.4 mph - N/A   Partly Cloudy
11:55 AM 73.4 °F 59.0 °F 61% 30.19 in 10.0 mi North 6.9 mph - N/A   Partly Cloudy
12:15 PM 73.4 °F 57.2 °F 57% 30.19 in 10.0 mi NNE 9.2 mph - N/A   Partly Cloudy
12:35 PM 73.4 °F 57.2 °F 57% 30.19 in 10.0 mi NE 9.2 mph - N/A   Scattered Clouds
12:55 PM 73.4 °F 55.4 °F 53% 30.19 in 10.0 mi NNE 9.2 mph - N/A   Partly Cloudy
1:15 PM 73.4 °F 57.2 °F 57% 30.19 in 10.0 mi NNE 10.4 mph - N/A   Partly Cloudy
1:35 PM 73.4 °F 57.2 °F 57% 30.19 in 10.0 mi NNE 12.7 mph - N/A   Partly Cloudy
1:55 PM 73.4 °F 57.2 °F 57% 30.19 in 10.0 mi NNE 12.7 mph - N/A   Clear
2:15 PM 73.4 °F 57.2 °F 57% 30.19 in 10.0 mi NNE 12.7 mph - N/A   Clear
2:35 PM 73.4 °F 57.2 °F 57% 30.19 in 10.0 mi North 11.5 mph - N/A   Clear
2:55 PM 71.6 °F 57.2 °F 60% 30.20 in 10.0 mi NNE 12.7 mph - N/A   Clear
3:15 PM 73.4 °F 57.2 °F 57% 30.20 in 10.0 mi NNE 13.8 mph - N/A   Clear
3:35 PM 75.2 °F 57.2 °F 53% 30.20 in 10.0 mi NNE 10.4 mph - N/A   Clear
3:55 PM 75.2 °F 57.2 °F 53% 30.20 in 10.0 mi NE 9.2 mph - N/A   Clear
4:15 PM 75.2 °F 57.2 °F 53% 30.20 in 10.0 mi NE 10.4 mph - N/A   Clear
4:35 PM 75.2 °F 57.2 °F 53% 30.20 in 10.0 mi NE 8.1 mph - N/A   Clear
4:55 PM 75.2 °F 57.2 °F 53% 30.20 in 10.0 mi NNE 6.9 mph - N/A   Clear
5:15 PM 77.0 °F 57.2 °F 50% 30.20 in 10.0 mi NE 8.1 mph - N/A   Clear
5:35 PM 77.0 °F 57.2 °F 50% 30.20 in 10.0 mi NE 8.1 mph - N/A   Clear
5:55 PM 78.8 °F 57.2 °F 47% 30.19 in 10.0 mi NNE 8.1 mph - N/A   Clear
6:15 PM 77.0 °F 57.2 °F 50% 30.19 in 10.0 mi NNE 10.4 mph - N/A   Clear
6:35 PM 75.2 °F 57.2 °F 53% 30.20 in 10.0 mi NNE 10.4 mph - N/A   Clear
6:55 PM 75.2 °F 57.2 °F 53% 30.20 in 10.0 mi NE 11.5 mph - N/A   Clear
7:15 PM 75.2 °F 57.2 °F 53% 30.20 in 10.0 mi NNE 8.1 mph - N/A   Clear
7:35 PM 75.2 °F 57.2 °F 53% 30.20 in 10.0 mi NE 9.2 mph - N/A   Clear
7:55 PM 73.4 °F 57.2 °F 57% 30.20 in 10.0 mi NE 9.2 mph - N/A   Clear
8:15 PM 71.6 °F 55.4 °F 57% 30.20 in 10.0 mi NNE 9.2 mph - N/A   Clear
8:35 PM 69.8 °F 55.4 °F 60% 30.21 in 10.0 mi North 6.9 mph - N/A   Clear
8:55 PM 68.0 °F 55.4 °F 64% 30.21 in 10.0 mi NNE 6.9 mph - N/A   Clear
9:15 PM 66.2 °F 55.4 °F 68% 30.21 in 10.0 mi NNE 5.8 mph - N/A   Clear
9:35 PM 66.2 °F 55.4 °F 68% 30.22 in 10.0 mi NNE 8.1 mph - N/A   Clear
9:55 PM 64.4 °F 55.4 °F 73% 30.22 in 10.0 mi NNE 8.1 mph - N/A   Clear
10:15 PM 64.4 °F 55.4 °F 73% 30.23 in 10.0 mi NNE 10.4 mph - N/A   Clear
10:35 PM 64.4 °F 55.4 °F 73% 30.23 in 10.0 mi NE 9.2 mph - N/A   Clear
10:55 PM 64.4 °F 53.6 °F 68% 30.23 in 10.0 mi NE 9.2 mph - N/A   Clear
11:35 PM 62.6 °F 53.6 °F 72% 30.23 in 10.0 mi NE 9.2 mph - N/A   Clear
11:55 PM 60.8 °F 53.6 °F 77% 30.23 in 10.0 mi ENE 8.1 mph - N/A   Clear